Flag for Botswana Weather past 2 weeks in Molepolole, Botswana

Now
72 °F

Scattered clouds.


Feels Like: 76 °F
Forecast: 61 / 78 °F
Wind: 16 mph from East

Location: Seretse Khama International Airport

Current Time: Mar 2, 2015 at 5:56:49 PM

Latest Report: Mar 2, 2015 at 5:00 PM


Visibility: N/A

Pressure: 30.07 "Hg

Humidity: 61%

Dew point: 57 °F

Location of MolepololeLocation

Historic Weather in Molepolole — Graph

°F

Molepolole temperature yesterday

Maximum temperature yesterday: 86 °F (at 3:00 PM)
Minimum temperature yesterday: 66 °F (at 5:00 AM)
Average temperature yesterday: 72 °F

Past Weeks' High & Low Weather Summary

 TemperatureHumidityPressure
High99 °F (Feb 20, 2:00 PM)94% (Mar 2, 4:00 AM)30.27 "Hg (Mar 2, 4:00 AM)
Low61 °F (Mar 2, 5:00 AM)9% (Feb 15, 6:00 PM)29.80 "Hg (Feb 15, 4:00 PM)
Average80 °F41%30.01 "Hg
* Reported Feb 15 4:00 PM — Mar 2 4:00 PM, Molepolole, Weather by CustomWeather, © 2015

Note: Actual official high and low records may vary slightly from our data, if they occured in-between our weather recording intervals... More about our weather records

Advertising

Molepolole weather history for previous 24 hours

 ConditionsComfort  
Time TempWeatherWind HumidityBarometerVisibility
4:00 PM
Mon, Mar 2
73 °FThunderstorms. Partly sunny.16 mph65%30.07 "HgN/A
3:00 PM73 °FThunderstorms. Partly sunny.17 mph61%30.04 "HgN/A
2:00 PM86 °FPartly sunny.3 mph31%30.01 "HgN/A
1:00 PM86 °FPartly sunny.3 mph33%30.04 "HgN/A
12:00 PM81 °FScattered clouds.5 mph45%30.09 "HgN/A
11:00 AM81 °FPassing clouds.7 mph45%30.09 "HgN/A
10:00 AM77 °FSunny.10 mph51%30.09 "Hg10 mi
9:01 AM73 °FPassing clouds.8 mph61%30.09 "HgN/A
9:00 AM73 °FPassing clouds.8 mph61%30.09 "HgN/A
8:00 AM68 °FSunny.8 mph73%30.07 "Hg10 mi
7:00 AM63 °FSunny.1 mph88%30.04 "Hg10 mi
6:00 AM61 °FSunny.8 mph94%30.01 "Hg10 mi
5:00 AM61 °FClear.2 mph94%29.98 "Hg10 mi
4:00 AM63 °FClear.2 mph94%29.98 "Hg10 mi
2:00 AM64 °FClear.1 mph88%29.98 "Hg10 mi
1:00 AM64 °FClear.5 mph88%29.95 "Hg10 mi
12:00 AM68 °FClear.6 mph78%29.98 "Hg10 mi
11:00 PM
Sun, Mar 1
68 °FClear.5 mph83%29.95 "Hg10 mi
10:00 PM70 °FClear.5 mph73%29.95 "Hg10 mi
9:00 PM68 °FPassing clouds.3 mph78%29.95 "HgN/A
8:00 PM70 °FPassing clouds.2 mph73%29.92 "HgN/A
6:00 PM72 °FPassing clouds.5 mph65%29.86 "HgN/A
Weather by CustomWeather, © 2015

See weather overviewHow to use our weather pages